Ketchikan, AK

8:11 AM AKST on November 15, 2018 (GMT -0900)
Ketchikan International

Weather History for PAKT - March, 2018

Change the Weather History Date:

Monday, March 12, 2018

  Actual Average Record
Temperature  
Mean Temperature 50 °F -  
Max Temperature 60 °F 45 °F 60 °F (2018)
Min Temperature 42 °F 32 °F 15 °F (2003)
Degree Days  
Heating Degree Days 14    
Moisture  
Dew Point 37 °F    
Average Humidity 64    
Maximum Humidity 93    
Minimum Humidity 36    
Precipitation  
Precipitation 0.01 in - - ()
Sea Level Pressure  
Sea Level Pressure 29.91 in    
Wind  
Wind Speed 6 mph (SE)    
Max Wind Speed 18 mph    
Max Gust Speed 25 mph    
Visibility 10 miles    
Events Rain    
Averages and records for this station are not official NWS values.
T = Trace of Precipitation, MM = Missing Value Source: NWS Daily Summary

Daily Weather History Graph

Daily Weather History Graph

Search for Another Location

Airport or City:

Astronomy

Mar. 12, 2018 Rise Set
Actual Time 7:09 AM AKDT 6:44 PM AKDT
Civil Twilight 6:32 AM AKDT 7:21 PM AKDT
Nautical Twilight 5:50 AM AKDT 8:04 PM AKDT
Astronomical Twilight 5:06 AM AKDT 8:48 PM AKDT
Moon 5:16 AM AKDT (3/12) 1:30 PM AKDT (3/12)
Length of Visible Light 12h 48m
Length of Day
11h 35m
Waning Crescent, 20% of the Moon is Illuminated
Mar 12
Waning Crescent
Mar 17
New
Mar 24
First Quarter
Mar 31
Full
Apr 7
Last Quarter

Hourly Weather History & Observations

Time (AKDT) Temp. Windchill Dew Point Humidity Pressure Visibility Wind Dir Wind Speed Gust Speed Precip Events Conditions
12:53 AM 46.9 °F - 41.0 °F 80% 30.07 in 10.0 mi ESE 4.6 mph - 0.00 in Rain Light Rain
1:53 AM 44.1 °F - 41.0 °F 89% 30.04 in 10.0 mi Calm Calm - 0.01 in   Overcast
2:53 AM 43.0 °F 40.3 °F 41.0 °F 93% 30.03 in 10.0 mi SE 4.6 mph - 0.00 in   Overcast
3:53 AM 44.1 °F 40.8 °F 39.9 °F 85% 30.01 in 10.0 mi SSE 5.8 mph - N/A   Overcast
4:53 AM 43.0 °F 41.3 °F 39.9 °F 89% 30.01 in 10.0 mi South 3.5 mph - N/A   Overcast
5:53 AM 43.0 °F 37.7 °F 39.9 °F 89% 30.00 in 10.0 mi SSE 9.2 mph - 0.00 in Rain Light Rain
6:04 AM 42.8 °F 39.3 °F 39.2 °F 87% 29.99 in 10.0 mi SE 5.8 mph - N/A Rain Light Rain
6:53 AM 42.8 °F 38.6 °F 39.2 °F 87% 29.97 in 10.0 mi SE 6.9 mph - N/A   Overcast
7:53 AM 42.8 °F 38.0 °F 39.2 °F 87% 29.96 in 10.0 mi SE 8.1 mph - N/A   Overcast
8:53 AM 44.6 °F 40.7 °F 39.2 °F 81% 29.96 in 10.0 mi SE 6.9 mph - N/A   Overcast
9:53 AM 44.6 °F 40.7 °F 41.0 °F 87% 29.94 in 10.0 mi SE 6.9 mph - N/A   Overcast
10:53 AM 48.9 °F - 39.9 °F 71% 29.93 in 10.0 mi ESE 4.6 mph - N/A   Overcast
11:53 AM 53.6 °F - 39.2 °F 58% 29.91 in 10.0 mi Calm Calm - N/A   Overcast
12:53 PM 57.2 °F - 35.6 °F 44% 29.89 in 10.0 mi Variable 5.8 mph - N/A   Overcast
1:53 PM 57.2 °F - 35.6 °F 44% 29.87 in 10.0 mi SSE 9.2 mph - N/A   Overcast
2:53 PM 59.0 °F - 33.8 °F 39% 29.85 in 10.0 mi ESE 11.5 mph 24.2 mph N/A   Mostly Cloudy
3:53 PM 59.0 °F - 33.8 °F 39% 29.83 in 10.0 mi ESE 18.4 mph 25.3 mph N/A   Mostly Cloudy
4:53 PM 59.0 °F - 33.8 °F 39% 29.83 in 10.0 mi SE 16.1 mph 24.2 mph N/A   Mostly Cloudy
5:53 PM 59.0 °F - 32.0 °F 36% 29.82 in 10.0 mi SSE 8.1 mph 19.6 mph N/A   Mostly Cloudy
6:53 PM 57.2 °F - 30.2 °F 36% 29.81 in 10.0 mi South 6.9 mph 21.9 mph N/A   Partly Cloudy
7:53 PM 53.6 °F - 32.0 °F 44% 29.81 in 10.0 mi SSE 6.9 mph - N/A   Overcast
8:53 PM 55.4 °F - 30.2 °F 38% 29.81 in 10.0 mi SSW 4.6 mph - N/A   Scattered Clouds
9:53 PM 52.0 °F - 30.9 °F 45% 29.80 in 10.0 mi Variable 3.5 mph - N/A   Partly Cloudy
10:53 PM 46.9 °F - 34.0 °F 61% 29.79 in 10.0 mi Calm Calm - N/A   Clear
11:53 PM 45.0 °F - 32.0 °F 60% 29.78 in 10.0 mi Calm Calm - N/A   Clear